| time (UTC) | temp F | wind direction | speed MPH | gust MPH | rain 1hr in | rain 24hr in | rain mn in | humidity % | barometer mb |
| 20260510160125 | 66 | 232 | 2.0 | 6.0 | 0.00 | 0.15 | 0.00 | 69 | 1011.1 |
| 20260510154607 | 66 | 269 | 0.0 | 6.0 | 0.00 | 0.16 | 0.00 | 73 | 1011.3 |
| 20260510153057 | 67 | 308 | 3.0 | 7.0 | 0.00 | 0.16 | 0.00 | 71 | 1011.3 |
| 20260510151555 | 66 | 304 | 3.0 | 5.0 | 0.00 | 0.16 | 0.00 | 72 | 1011.2 |
| 20260510150052 | 64 | 142 | 1.0 | 4.0 | 0.00 | 0.16 | 0.00 | 77 | 1011.2 |
| 20260510144603 | 63 | 207 | 0.0 | 5.0 | 0.00 | 0.17 | 0.00 | 77 | 1011.2 |
| 20260510143047 | 63 | 306 | 1.0 | 5.0 | 0.00 | 0.17 | 0.00 | 79 | 1011.2 |
| 20260510141544 | 62 | 240 | 1.0 | 5.0 | 0.00 | 0.17 | 0.00 | 81 | 1011.2 |
| 20260510140040 | 61 | 162 | 2.0 | 6.0 | 0.00 | 0.17 | 0.00 | 82 | 1011.3 |
| 20260510134542 | 60 | 290 | 0.0 | 5.0 | 0.00 | 0.18 | 0.00 | 85 | 1011.4 |
| 20260510133032 | 58 | 202 | 2.0 | 7.0 | 0.00 | 0.18 | 0.00 | 86 | 1011.5 |
| 20260510131535 | 57 | 220 | 2.0 | 7.0 | 0.00 | 0.18 | 0.00 | 88 | 1011.6 |
| 20260510130025 | 55 | 250 | 0.0 | 4.0 | 0.00 | 0.18 | 0.00 | 92 | 1011.7 |
| 20260510124521 | 54 | 233 | 0.0 | 3.0 | 0.00 | 0.18 | 0.00 | 92 | 1011.4 |
| 20260510123026 | 53 | 250 | 0.0 | 2.0 | 0.00 | 0.18 | 0.00 | 93 | 1011.3 |
| 20260510121520 | 53 | 250 | 0.0 | 0.0 | 0.00 | 0.18 | 0.00 | 94 | 1011.3 |
| 20260510120017 | 53 | 251 | 0.0 | 0.0 | 0.00 | 0.18 | 0.00 | 93 | 1011.3 |
| 20260510114512 | 52 | 251 | 0.0 | 0.0 | 0.00 | 0.19 | 0.00 | 94 | 1011.2 |
| 20260510113017 | 52 | 251 | 0.0 | 1.0 | 0.00 | 0.19 | 0.00 | 94 | 1011.4 |
| 20260510111508 | 52 | 251 | 0.0 | 0.0 | 0.00 | 0.19 | 0.00 | 94 | 1011.1 |
| 20260510110016 | 52 | 251 | 0.0 | 0.0 | 0.00 | 0.19 | 0.00 | 94 | 1011.2 |
| 20260510104506 | 52 | 251 | 0.0 | 0.0 | 0.00 | 0.24 | 0.00 | 94 | 1011.1 |
| 20260510103004 | 52 | 251 | 0.0 | 1.0 | 0.00 | 0.24 | 0.00 | 94 | 1010.8 |
| 20260510101501 | 51 | 223 | 2.0 | 5.0 | 0.00 | 0.24 | 0.00 | 95 | 1010.7 |
| 20260510100100 | 51 | 119 | 0.0 | 3.0 | 0.00 | 0.24 | 0.00 | 95 | 1010.3 |
| 20260510094611 | 51 | 71 | 0.0 | 6.0 | 0.00 | 0.33 | 0.00 | 95 | 1010.3 |
| 20260510093119 | 51 | 225 | 0.0 | 4.0 | 0.00 | 0.33 | 0.00 | 95 | 1010.1 |
| 20260510091600 | 51 | 336 | 1.0 | 2.0 | 0.00 | 0.33 | 0.00 | 95 | 1009.8 |
| 20260510090058 | 50 | 166 | 3.0 | 7.0 | 0.00 | 0.33 | 0.00 | 95 | 1009.5 |
| 20260510084600 | 50 | 316 | 0.0 | 3.0 | 0.00 | 0.39 | 0.00 | 95 | 1009.8 |
| 20260510083057 | 50 | 316 | 0.0 | 2.0 | 0.00 | 0.39 | 0.00 | 95 | 1010.0 |
| 20260510081551 | 50 | 316 | 0.0 | 0.0 | 0.00 | 0.39 | 0.00 | 95 | 1010.4 |
| 20260510080052 | 50 | 316 | 0.0 | 0.0 | 0.00 | 0.39 | 0.00 | 95 | 1010.6 |
| 20260510074550 | 49 | 316 | 0.0 | 0.0 | 0.00 | 0.40 | 0.00 | 95 | 1010.8 |
| 20260510073050 | 49 | 316 | 0.0 | 2.0 | 0.00 | 0.40 | 0.00 | 95 | 1010.7 |
| 20260510071552 | 49 | 316 | 0.0 | 0.0 | 0.00 | 0.40 | 0.00 | 95 | 1010.8 |
| 20260510070045 | 49 | 316 | 0.0 | 0.0 | 0.00 | 0.40 | 0.00 | 94 | 1010.5 |
| 20260510064543 | 49 | 316 | 0.0 | 0.0 | 0.00 | 0.40 | 0.00 | 94 | 1010.2 |
| 20260510063042 | 49 | 316 | 0.0 | 0.0 | 0.00 | 0.40 | 0.00 | 94 | 1010.2 |
| 20260510061542 | 49 | 316 | 0.0 | 0.0 | 0.00 | 0.40 | 0.00 | 94 | 1010.1 |
| 20260510060039 | 50 | 316 | 0.0 | 0.0 | 0.00 | 0.40 | 0.00 | 94 | 1010.3 |
| 20260510054538 | 50 | 316 | 0.0 | 0.0 | 0.00 | 0.40 | 0.00 | 94 | 1010.5 |
| 20260510053052 | 50 | 316 | 0.0 | 0.0 | 0.00 | 0.40 | 0.00 | 93 | 1010.4 |
| 20260510051540 | 50 | 316 | 0.0 | 0.0 | 0.00 | 0.40 | 0.00 | 93 | 1010.2 |
| 20260510050038 | 51 | 200 | 0.0 | 2.0 | 0.00 | 0.40 | 0.00 | 93 | 1010.2 |
| 20260510044533 | 51 | 200 | 0.0 | 0.0 | 0.00 | 0.40 | 0.00 | 93 | 1010.3 |
| 20260510043041 | 51 | 198 | 0.0 | 0.0 | 0.00 | 0.40 | 0.00 | 93 | 1010.2 |
| 20260510041528 | 52 | 198 | 0.0 | 0.0 | 0.00 | 0.40 | 0.00 | 93 | 1010.6 |
| 20260510040033 | 52 | 198 | 0.0 | 0.0 | 0.00 | 0.40 | 0.00 | 92 | 1010.4 |
| 20260510034521 | 52 | 198 | 0.0 | 2.0 | 0.00 | 0.40 | 0.40 | 92 | 1010.1 |
| 20260510033020 | 52 | 204 | 1.0 | 4.0 | 0.00 | 0.40 | 0.40 | 92 | 1010.3 |
| 20260510031523 | 52 | 65 | 0.0 | 7.0 | 0.00 | 0.40 | 0.40 | 93 | 1010.2 |
| 20260510030019 | 52 | 234 | 0.0 | 7.0 | 0.00 | 0.40 | 0.40 | 93 | 1010.2 |
| 20260510024519 | 52 | 218 | 2.0 | 4.0 | 0.00 | 0.40 | 0.40 | 93 | 1010.3 |
| 20260510023021 | 51 | 180 | 0.0 | 3.0 | 0.00 | 0.40 | 0.40 | 94 | 1010.2 |
| 20260510021531 | 51 | 215 | 0.0 | 2.0 | 0.00 | 0.40 | 0.40 | 94 | 1010.4 |
| 20260510020017 | 51 | 214 | 0.0 | 2.0 | 0.00 | 0.40 | 0.40 | 94 | 1010.3 |
| 20260510014519 | 51 | 157 | 0.0 | 3.0 | 0.00 | 0.40 | 0.40 | 94 | 1010.4 |
| 20260510013022 | 50 | 167 | 0.0 | 3.0 | 0.00 | 0.40 | 0.40 | 93 | 1010.3 |
| 20260510011514 | 50 | 207 | 1.0 | 6.0 | 0.00 | 0.40 | 0.40 | 93 | 1010.5 |
| 20260510010014 | 50 | 108 | 0.0 | 0.0 | 0.00 | 0.40 | 0.40 | 93 | 1010.5 |
| 20260510004613 | 50 | 108 | 0.0 | 0.0 | 0.00 | 0.40 | 0.40 | 92 | 1010.1 |
| 20260510003013 | 51 | 108 | 0.0 | 0.0 | 0.00 | 0.40 | 0.40 | 91 | 1009.8 |
| 20260510001513 | 52 | 108 | 0.0 | 0.0 | 0.00 | 0.40 | 0.40 | 90 | 1009.5 |
| 20260510000012 | 52 | 108 | 0.0 | 3.0 | 0.00 | 0.40 | 0.40 | 89 | 1009.2 |
| 20260509234512 | 53 | 201 | 3.0 | 8.0 | 0.00 | 0.40 | 0.40 | 89 | 1009.0 |
| 20260509233011 | 53 | 146 | 0.0 | 6.0 | 0.00 | 0.40 | 0.40 | 90 | 1009.1 |
| 20260509231509 | 53 | 157 | 1.0 | 5.0 | 0.00 | 0.40 | 0.40 | 91 | 1009.2 |
| 20260509230010 | 53 | 178 | 0.0 | 5.0 | 0.00 | 0.40 | 0.40 | 91 | 1009.2 |
| 20260509224509 | 53 | 215 | 0.0 | 5.0 | 0.00 | 0.40 | 0.40 | 91 | 1009.5 |
| 20260509223008 | 53 | 233 | 1.0 | 6.0 | 0.00 | 0.40 | 0.40 | 90 | 1009.6 |
| 20260509221506 | 53 | 201 | 0.0 | 4.0 | 0.00 | 0.40 | 0.40 | 90 | 1009.6 |
| 20260509220009 | 53 | 184 | 0.0 | 1.0 | 0.00 | 0.40 | 0.40 | 91 | 1009.4 |
| 20260509214504 | 53 | 223 | 0.0 | 3.0 | 0.00 | 0.41 | 0.40 | 91 | 1009.4 |
| 20260509213006 | 53 | 140 | 0.0 | 6.0 | 0.00 | 0.41 | 0.40 | 92 | 1009.6 |
| 20260509211505 | 53 | 229 | 0.0 | 4.0 | 0.01 | 0.41 | 0.40 | 91 | 1009.5 |
| 20260509210001 | 53 | 236 | 0.0 | 8.0 | 0.02 | 0.41 | 0.40 | 91 | 1009.7 |
| 20260509204600 | 53 | 184 | 1.0 | 11.0 | 0.03 | 0.41 | 0.40 | 91 | 1009.8 |
| 20260509203115 | 53 | 237 | 2.0 | 8.0 | 0.04 | 0.41 | 0.40 | 91 | 1010.1 |
| 20260509201556 | 53 | 227 | 2.0 | 6.0 | 0.04 | 0.40 | 0.39 | 91 | 1010.2 |
| 20260509200055 | 54 | 214 | 2.0 | 8.0 | 0.04 | 0.39 | 0.38 | 91 | 1010.4 |
| 20260509194552 | 54 | 142 | 0.0 | 8.0 | 0.05 | 0.38 | 0.37 | 92 | 1010.6 |
| 20260509193058 | 54 | 218 | 2.0 | 4.0 | 0.04 | 0.37 | 0.36 | 93 | 1010.6 |
| 20260509191601 | 54 | 229 | 1.0 | 4.0 | 0.04 | 0.36 | 0.35 | 93 | 1010.6 |
| 20260509190054 | 54 | 188 | 0.0 | 3.0 | 0.04 | 0.35 | 0.34 | 93 | 1010.6 |
| 20260509184558 | 53 | 231 | 0.0 | 2.0 | 0.02 | 0.33 | 0.32 | 93 | 1010.6 |
| 20260509183055 | 53 | 341 | 0.0 | 0.0 | 0.03 | 0.33 | 0.32 | 93 | 1010.5 |
| 20260509181545 | 53 | 341 | 0.0 | 2.0 | 0.03 | 0.32 | 0.31 | 92 | 1010.7 |
| 20260509180044 | 52 | 341 | 0.0 | 2.0 | 0.02 | 0.31 | 0.30 | 93 | 1010.8 |
| 20260509174558 | 52 | 338 | 0.0 | 0.0 | 0.03 | 0.32 | 0.30 | 93 | 1010.8 |
| 20260509173047 | 51 | 338 | 0.0 | 2.0 | 0.03 | 0.31 | 0.28 | 93 | 1010.8 |
| 20260509171533 | 51 | 337 | 0.0 | 3.0 | 0.02 | 0.30 | 0.28 | 92 | 1011.0 |
| 20260509170034 | 51 | 123 | 0.0 | 0.0 | 0.03 | 0.30 | 0.28 | 93 | 1011.3 |
| 20260509164528 | 50 | 123 | 0.0 | 2.0 | 0.02 | 0.28 | 0.27 | 92 | 1011.7 |
| 20260509163034 | 50 | 18 | 0.0 | 0.0 | 0.01 | 0.28 | 0.26 | 92 | 1011.7 |
| 20260509161521 | 49 | 18 | 0.0 | 2.0 | 0.02 | 0.28 | 0.26 | 92 | 1011.7 |